Regional Weather Roundup
Issued by NWS

Home | Current Version | Previous Version | Text Only | Print | Product List | Glossary On
Versions: 1 2 3 4 5 6 7 8 9 10 11 12 13 14 15 16 17 18 19 20 21 22 23 24 25 26 27 28 29 30 31 32 33 34 35 36 37 38 39 40 41 42 43 44 45 46 47 48 49 50
000
ASUS45 KPSR 250610
RWRAZ

ARIZONA HOURLY REGIONAL WEATHER ROUNDUP
NATIONAL WEATHER SERVICE PHOENIX AZ
1100 PM MST SAT JUN 24 2017

NOTE: FAIR INDICATES FEW OR NO CLOUDS BELOW 12,000 FEET WITH NO
SIGNIFICANT WEATHER AND/OR OBSTRUCTIONS TO VISIBILITY.

AZZ001>003-036-250700-
NORTHWEST ARIZONA

CITY           SKY/WX    TMP DP  RH WIND       PRES   REMARKS
BULLHEAD CITY  MOCLDY   106  32   8 SW9       29.64R
KINGMAN        PTCLDY    85  28  12 SE12      29.93S
6HR MIN TEMP:  83; 6HR MAX TEMP: 110;

$$

AZZ004>008-015-016-018-250700-
NORTH CENTRAL ARIZONA

CITY           SKY/WX    TMP DP  RH WIND       PRES   REMARKS
GRAND CANYON   PTCLDY    60  28  29 CALM      30.26R
6HR MIN TEMP:  59; 6HR MAX TEMP:  93;

PRESCOTT       PTCLDY    74  45  35 S8        30.10R
6HR MIN TEMP:  74; 6HR MAX TEMP:  96;

FLAGSTAFF      CLOUDY    70  30  22 CALM      30.28S
6HR MIN TEMP:  68; 6HR MAX TEMP:  90;

PAYSON         MOCLDY    84  37  18 E5        30.15S
PAGE           CLEAR     84  33  16 S3        30.03R
6HR MIN TEMP:  84; 6HR MAX TEMP: 104;

$$

AZZ009>014-017-250700-
NORTHEAST ARIZONA

CITY           SKY/WX    TMP DP  RH WIND       PRES   REMARKS
WINSLOW        PTCLDY    81  31  16 SW10      30.07S
6HR MIN TEMP:  80; 6HR MAX TEMP: 102;

SAINT JOHNS    PTCLDY    79  36  21 VRB5      30.15R
6HR MIN TEMP:  78; 6HR MAX TEMP: 100;

WINDOW ROCK    CLEAR     72  35  25 CALM      30.27R
6HR MIN TEMP:  68; 6HR MAX TEMP:  94;

SHOW LOW       MOCLDY    75  34  22 S12       30.25S
$$

AZZ540-542>544-546-548-250700-
GREATER PHOENIX AREA

CITY           SKY/WX    TMP DP  RH WIND       PRES   REMARKS
PHOENIX        MOCLDY   105  37   9 W8        29.71R
6HR MIN TEMP: 103; 6HR MAX TEMP: 115;

BUCKEYE        CLOUDY    95  48  20 S7        29.72R
LUKE AFB       MOCLDY   102  39  11 S15       29.70R
6HR MIN TEMP: 101; 6HR MAX TEMP: 115;

DEER VALLEY    PTCLDY   100  39  12 S5        29.75R
6HR MIN TEMP:  96; 6HR MAX TEMP: 113;

SCOTTSDALE     MOCLDY   100  44  14 NE3       29.77R
6HR MIN TEMP:  99; 6HR MAX TEMP: 113;

MESA-GATEWAY   PTCLDY    95  41  15 E6        29.76R
$$

AZZ539-553-250700-
SOUTHWEST MARICOPA COUNTY AND PINAL COUNTY

CITY           SKY/WX    TMP DP  RH WIND       PRES   REMARKS
CASA GRANDE    CLOUDY    97  36  12 S7        29.77
GILA BEND      FAIR     102  44  13 SW8       29.71R
6HR MIN TEMP: 102; 6HR MAX TEMP: 116;

$$

AZZ503-504-507>509-250700-
SOUTHEAST ARIZONA

CITY           SKY/WX    TMP DP  RH WIND       PRES   REMARKS
TUCSON         CLOUDY    99  48  17 E10G23    29.94R
6HR MIN TEMP:  98; 6HR MAX TEMP: 112;

DAVIS-MONTHAN  CLOUDY    97  48  18 SE15      29.93R
6HR MIN TEMP:  97; 6HR MAX TEMP: 110;

NOGALES        CLOUDY    89  51  27 SE14G31   30.05R
6HR MIN TEMP:  89; 6HR MAX TEMP: 106;

SIERRA VISTA   PTCLDY    80  53  39 SE26      30.17R
6HR MIN TEMP:  80; 6HR MAX TEMP: 103;

DOUGLAS        LGT RAIN  72  61  68 SE32G38   30.12F
6HR MIN TEMP:  72; 6HR MAX TEMP:  99; 6HR PCP:  0.03;

SAFFORD        PTCLDY    84  53  34 S17G28    30.03S
6HR MIN TEMP:  84; 6HR MAX TEMP: 110; 6HR PCP: TRACE;

$$

AZZ532-250700-
SOUTHWEST ARIZONA

CITY           SKY/WX    TMP DP  RH WIND       PRES   REMARKS
YUMA           MOCLDY    95  50  21 SW5       29.68R
6HR MIN TEMP:  93; 6HR MAX TEMP: 114;

$$

CAZ041-043-047-048-061-525>527-560>570-250700-
SOUTHERN CALIFORNIA

CITY           SKY/WX    TMP DP  RH WIND       PRES   REMARKS
DOWNTOWN L.A.  CLEAR     67  61  81 CALM      29.86S
6HR MIN TEMP:  67; 6HR MAX TEMP:  76;

L.A. AIRPORT   CLEAR     64  61  90 W7        29.87S
6HR MIN TEMP:  64; 6HR MAX TEMP:  70;

SAN DIEGO      MOCLDY    65  61  87 N7        29.90R
6HR MIN TEMP:  65; 6HR MAX TEMP:  72;

BURBANK        CLEAR     71  58  63 SE6       29.87R
6HR MIN TEMP:  71; 6HR MAX TEMP:  82;

ONTARIO        CLEAR     75  60  59 SW6       29.87R
6HR MIN TEMP:  75; 6HR MAX TEMP:  89;

RIVERSIDE      CLEAR     74  60  61 W5        29.87R
6HR MIN TEMP:  74; 6HR MAX TEMP:  89;

PALM SPRINGS   CLEAR     97  52  21 CALM      29.70R
6HR MIN TEMP:  97; 6HR MAX TEMP: 116;

EL CENTRO NAS  PTCLDY    99  43  14 W10       29.67R
6HR MIN TEMP:  98; 6HR MAX TEMP: 118;

IMPERIAL       CLEAR     95  54  25 W10       29.64R
6HR MIN TEMP:  93; 6HR MAX TEMP: 118;

BLYTHE         CLEAR     99  59  26 SE7       29.67R
6HR MIN TEMP:  99; 6HR MAX TEMP: 120;

NEEDLES        PTCLDY   111  29   6 NW17G24   29.67  HX 103
6HR MIN TEMP: 111; 6HR MAX TEMP: 123;

$$

NVZ020-UTZ003-250700-
SOUTHERN NEVADA-UTAH

CITY           SKY/WX    TMP DP  RH WIND       PRES   REMARKS
LAS VEGAS      PTCLDY   102  29   7 SW13G22   29.80R
6HR MIN TEMP: 102; 6HR MAX TEMP: 113;

SALT LAKE CITY CLEAR     72  31  22 SW3       30.14S
6HR MIN TEMP:  71; 6HR MAX TEMP:  89;

$$

NMZ009-TXZ055-250700-
NEW MEXICO-WEST TEXAS

CITY           SKY/WX    TMP DP  RH WIND       PRES   REMARKS
ALBUQUERQUE    CLOUDY    71  46  40 E8        30.25S
6HR MIN TEMP:  71; 6HR MAX TEMP:  90;

EL PASO        CLOUDY    75  60  59 SW14      30.20F
6HR MIN TEMP:  74; 6HR MAX TEMP:  94; 6HR PCP: TRACE;

$$


........................KEY........................
SKY/WX - SKY CONDITION/WEATHER
TMP    - TEMPERATURE IN FAHRENHEIT
DP     - DEW POINT IN FAHRENHEIT
RH     - RELATIVE HUMIDITY IN PERCENT
WIND   - DIRECTION AND SPEED IN MILES PER HOUR (MPH)
VRB    - VARIABLE WIND DIRECTION
PRES   - MEAN SEA LEVEL PRESSURE IN INCHES OF MERCURY
         F - FALLING PRESSURE   R - RISING PRESSURE
         S - STEADY PRESSURE
VSB    - VISIBILITY IN MILES
HX     - HEAT INDEX IN FAHRENHEIT
WCI    - WIND CHILL INDEX IN FAHRENHEIT
TC     - TEMPERATURE IN CELSIUS WHICH IS ALSO KNOWN AS
         TEMPERATURE IN CENTIGRADE
AFB    - AIR FORCE BASE
         LUKE AFB IS LUKE AIR FORCE BASE
         DAVIS-MONTHAN IS DAVIS-MONTHAN AIR FORCE BASE
NAS    - NAVAL AIR STATION
         EL CENTRO NAS IS EL CENTRO NAVAL AIR STATION
N/A    - NOT AVAILABLE




USA.gov is the U.S. government's official web portal to all federal, state and local government web resources and services.